Check out our new BloomSky Weather System.

Active alerts

Houston, TX
  Details for Houston, TX Dense Fog Advisory


Thunder radar  blitzortung!


Rain radar more information rain snow radar


Visit our other weather sites:

Template documentation
and downloads

And another site



Weather Underground History page Text

Daily Summary for January 19, 2017 Units:  Metric    English   Both
« Previous Day
Next Day »
Daily Weekly Monthly Yearly Custom
  High: Low: Average:
Temperature: 17 °C 12.3 °C 14.6 °C
Dew Point: 16.2 °C 12 °C 14.1 °C
Humidity: 99 % 92 % 97 %
Wind Speed: 9.7 km/h 0 km/h 2.3 km/h
Wind Gust: 14.5 km/h - -
Wind:- - SSW
Pressure: 1014.4 hPa 1007 hPa -
Precipitation: 6.6 mm    
Historical Graphs
 
 
Tabular Data for January 19, 2017
Time Temperature Dew Point Pressure Wind Wind Speed Wind Gust Humidity Rainfall Rate (Hourly)
00:00 12.8 °C 12.5 °C 1014.1 hPa NW 3.2 km/h 4.8 km/h 98 % 0 mm
00:05 12.8 °C 12.5 °C 1014.1 hPa NW 1.6 km/h 3.2 km/h 98 % 0 mm
00:10 12.8 °C 12.5 °C 1014.1 hPa WNW 4.8 km/h 6.4 km/h 98 % 0 mm
00:15 12.8 °C 12.5 °C 1014.1 hPa Calm   6.4 km/h 98 % 0 mm
00:20 12.8 °C 12.5 °C 1014.1 hPa WNW 3.2 km/h 6.4 km/h 98 % 0 mm
00:25 12.8 °C 12.5 °C 1014.1 hPa Calm   6.4 km/h 98 % 0 mm
00:30 12.8 °C 12.5 °C 1014.4 hPa WSW 3.2 km/h 6.4 km/h 98 % 0 mm
00:35 12.8 °C 12.5 °C 1014.1 hPa West 3.2 km/h 6.4 km/h 98 % 0 mm
00:40 12.8 °C 12.5 °C 1014.1 hPa Calm   6.4 km/h 98 % 0 mm
00:45 12.9 °C 12.6 °C 1014.1 hPa Calm   6.4 km/h 98 % 0 mm
00:50 12.8 °C 12.5 °C 1014.1 hPa West 1.6 km/h 6.4 km/h 98 % 0 mm
00:55 12.8 °C 12.5 °C 1013.8 hPa Calm   4.8 km/h 98 % 0 mm
01:00 12.9 °C 12.6 °C 1014.1 hPa WSW 1.6 km/h 6.4 km/h 98 % 0 mm
01:05 12.9 °C 12.6 °C 1014.1 hPa West 3.2 km/h 6.4 km/h 98 % 0 mm
01:10 12.9 °C 12.6 °C 1013.8 hPa Calm   6.4 km/h 98 % 0 mm
01:15 12.8 °C 12.5 °C 1013.4 hPa Calm   4.8 km/h 98 % 0 mm
01:20 12.8 °C 12.5 °C 1013.4 hPa Calm   4.8 km/h 98 % 0 mm
01:25 12.8 °C 12.5 °C 1014.1 hPa Calm   4.8 km/h 98 % 0 mm
01:30 12.9 °C 12.6 °C 1013.4 hPa North 1.6 km/h 4.8 km/h 98 % 0 mm
01:35 12.9 °C 12.6 °C 1013.1 hPa SE 1.6 km/h 4.8 km/h 98 % 0 mm
01:40 12.9 °C 12.6 °C 1013.1 hPa Calm   4.8 km/h 98 % 0 mm
01:45 12.9 °C 12.6 °C 1012.8 hPa Calm   4.8 km/h 98 % 0 mm
01:50 12.9 °C 12.6 °C 1012.4 hPa Calm   3.2 km/h 98 % 0 mm
01:55 12.9 °C 12.6 °C 1012.1 hPa ENE 1.6 km/h 3.2 km/h 98 % 0 mm
02:01 12.9 °C 12.6 °C 1012.8 hPa Calm   4.8 km/h 98 % 0 mm
02:06 12.9 °C 12.6 °C 1012.4 hPa Calm   4.8 km/h 98 % 0 mm
02:11 12.9 °C 12.6 °C 1012.8 hPa Calm   4.8 km/h 98 % 0.25 mm
02:16 12.9 °C 12.6 °C 1012.4 hPa NW 1.6 km/h 3.2 km/h 98 % 0.25 mm
02:21 12.9 °C 12.6 °C 1012.8 hPa Calm   6.4 km/h 98 % 0.25 mm
02:26 12.9 °C 12.6 °C 1012.8 hPa Calm   6.4 km/h 98 % 0.25 mm
02:31 12.9 °C 12.6 °C 1011.7 hPa ESE 3.2 km/h 9.7 km/h 98 % 0.25 mm
02:36 12.9 °C 12.6 °C 1012.8 hPa NW 1.6 km/h 9.7 km/h 98 % 0.25 mm
02:41 12.9 °C 12.6 °C 1011.7 hPa North 3.2 km/h 9.7 km/h 98 % 0.25 mm
02:46 12.9 °C 12.6 °C 1012.8 hPa WSW 1.6 km/h 9.7 km/h 98 % 0.25 mm
02:51 12.9 °C 12.6 °C 1012.1 hPa North 1.6 km/h 8 km/h 98 % 0.25 mm
02:56 12.8 °C 12.5 °C 1012.4 hPa Calm   6.4 km/h 98 % 0.25 mm
03:01 12.8 °C 12.5 °C 1011.7 hPa Calm   4.8 km/h 98 % 0.25 mm
03:06 12.9 °C 12.6 °C 1011.7 hPa WNW 1.6 km/h 3.2 km/h 98 % 0.25 mm
03:11 12.8 °C 12.5 °C 1011.7 hPa Calm   3.2 km/h 98 % 0 mm
03:16 12.9 °C 12.6 °C 1012.4 hPa Calm   3.2 km/h 98 % 0 mm
03:21 12.8 °C 12.5 °C 1012.8 hPa Calm   3.2 km/h 98 % 0 mm
03:26 12.8 °C 12.5 °C 1012.4 hPa WSW 1.6 km/h 3.2 km/h 98 % 0 mm
03:31 12.8 °C 12.5 °C 1012.4 hPa Calm   4.8 km/h 98 % 0 mm
03:36 12.9 °C 12.6 °C 1012.4 hPa West 3.2 km/h 4.8 km/h 98 % 0 mm
03:41 12.8 °C 12.5 °C 1012.8 hPa SW 1.6 km/h 11.3 km/h 98 % 0 mm
03:46 12.8 °C 12.5 °C 1012.8 hPa NNW 3.2 km/h 11.3 km/h 98 % 0 mm
03:51 12.8 °C 12.5 °C 1012.8 hPa NW 3.2 km/h 11.3 km/h 98 % 0 mm
03:56 12.8 °C 12.5 °C 1012.4 hPa WNW 1.6 km/h 9.7 km/h 98 % 0 mm
04:01 12.7 °C 12.4 °C 1012.4 hPa West 3.2 km/h 9.7 km/h 98 % 0 mm
04:06 12.6 °C 12.3 °C 1012.8 hPa North 3.2 km/h 9.7 km/h 98 % 0 mm
04:11 12.6 °C 12.3 °C 1012.8 hPa West 1.6 km/h 9.7 km/h 98 % 0 mm
04:16 12.6 °C 12.3 °C 1012.8 hPa WSW 6.4 km/h 9.7 km/h 98 % 0 mm
04:21 12.6 °C 12.3 °C 1012.8 hPa Calm   11.3 km/h 98 % 0 mm
04:26 12.6 °C 12.3 °C 1012.8 hPa WSW 1.6 km/h 11.3 km/h 98 % 0 mm
04:31 12.5 °C 12.2 °C 1012.8 hPa SW 3.2 km/h 11.3 km/h 98 % 0 mm
04:36 12.5 °C 12.2 °C 1012.8 hPa West 4.8 km/h 9.7 km/h 98 % 0 mm
04:41 12.5 °C 12.2 °C 1012.8 hPa WSW 4.8 km/h 11.3 km/h 98 % 0 mm
04:46 12.4 °C 12.1 °C 1012.8 hPa NNW 4.8 km/h 11.3 km/h 98 % 0 mm
04:51 12.4 °C 12.1 °C 1012.4 hPa NNW 3.2 km/h 11.3 km/h 98 % 0 mm
04:56 12.4 °C 12.1 °C 1012.8 hPa SW 4.8 km/h 9.7 km/h 98 % 0 mm
05:01 12.4 °C 12.1 °C 1012.4 hPa WNW 6.4 km/h 11.3 km/h 98 % 0 mm
05:06 12.4 °C 12.1 °C 1012.4 hPa Calm   11.3 km/h 98 % 0 mm
05:11 12.4 °C 12.1 °C 1012.1 hPa SW 3.2 km/h 11.3 km/h 98 % 0 mm
05:16 12.4 °C 12.1 °C 1011.7 hPa NW 1.6 km/h 8 km/h 98 % 0 mm
05:21 12.4 °C 12.1 °C 1011.1 hPa NW 3.2 km/h 8 km/h 98 % 0 mm
05:26 12.3 °C 12 °C 1011.1 hPa WNW 4.8 km/h 8 km/h 98 % 0 mm
05:31 12.3 °C 12 °C 1011.1 hPa NNW 3.2 km/h 8 km/h 98 % 0 mm
05:36 12.3 °C 12 °C 1011.4 hPa Calm   8 km/h 98 % 0 mm
05:41 12.3 °C 12 °C 1011.7 hPa WNW 1.6 km/h 6.4 km/h 98 % 0 mm
05:46 12.4 °C 12.1 °C 1011.7 hPa NNW 1.6 km/h 6.4 km/h 98 % 0 mm
05:51 12.4 °C 12.1 °C 1012.4 hPa WNW 4.8 km/h 4.8 km/h 98 % 0 mm
05:56 12.4 °C 12.1 °C 1012.1 hPa NW 1.6 km/h 6.4 km/h 98 % 0 mm
06:01 12.4 °C 12.1 °C 1012.1 hPa Calm   6.4 km/h 98 % 0 mm
06:06 12.4 °C 12.1 °C 1012.4 hPa WNW 1.6 km/h 6.4 km/h 98 % 0 mm
06:11 12.3 °C 12 °C 1012.1 hPa Calm   4.8 km/h 98 % 0 mm
06:16 12.3 °C 12 °C 1011.7 hPa NW 3.2 km/h 4.8 km/h 98 % 0 mm
06:21 12.3 °C 12 °C 1011.4 hPa Calm   4.8 km/h 98 % 0 mm
06:26 12.3 °C 12 °C 1011.7 hPa NW 1.6 km/h 3.2 km/h 98 % 0 mm
06:31 12.3 °C 12 °C 1011.7 hPa NW 1.6 km/h 3.2 km/h 98 % 0.25 mm
06:36 12.3 °C 12 °C 1011.4 hPa Calm   4.8 km/h 98 % 0.25 mm
06:41 12.3 °C 12 °C 1011.7 hPa Calm   4.8 km/h 98 % 0.25 mm
06:46 12.3 °C 12 °C 1011.7 hPa NW 1.6 km/h 4.8 km/h 98 % 0.25 mm
06:51 12.3 °C 12 °C 1012.1 hPa Calm   4.8 km/h 98 % 0.25 mm
06:56 12.3 °C 12 °C 1011.7 hPa Calm   4.8 km/h 98 % 0.25 mm
07:01 12.4 °C 12.1 °C 1011.7 hPa NW 1.6 km/h 4.8 km/h 98 % 0.76 mm
07:06 12.4 °C 12.1 °C 1011.7 hPa Calm   3.2 km/h 98 % 1.02 mm
07:11 12.4 °C 12.1 °C 1011.7 hPa Calm   3.2 km/h 98 % 1.27 mm
07:16 12.4 °C 12.1 °C 1011.7 hPa Calm   3.2 km/h 98 % 1.27 mm
07:21 12.4 °C 12.1 °C 1011.7 hPa Calm   3.2 km/h 98 % 1.27 mm
07:26 12.4 °C 12.1 °C 1012.1 hPa Calm   3.2 km/h 98 % 1.52 mm
07:31 12.4 °C 12.1 °C 1012.8 hPa SSW 4.8 km/h 6.4 km/h 98 % 1.27 mm
07:36 12.4 °C 12.1 °C 1012.4 hPa Calm   8 km/h 98 % 1.52 mm
07:42 12.4 °C 12.1 °C 1012.4 hPa SE 1.6 km/h 8 km/h 98 % 2.03 mm
07:47 12.5 °C 12.2 °C 1012.1 hPa Calm   8 km/h 98 % 2.79 mm
07:52 12.5 °C 12.2 °C 1011.7 hPa ESE 1.6 km/h 4.8 km/h 98 % 3.05 mm
07:57 12.5 °C 12.2 °C 1012.1 hPa Calm   4.8 km/h 98 % 3.05 mm
08:02 12.5 °C 12.2 °C 1012.1 hPa Calm   4.8 km/h 98 % 2.79 mm
08:07 12.5 °C 12.2 °C 1012.1 hPa East 3.2 km/h 4.8 km/h 98 % 2.79 mm
08:12 12.6 °C 12.4 °C 1012.1 hPa SSE 6.4 km/h 6.4 km/h 99 % 2.79 mm
08:17 12.6 °C 12.4 °C 1012.4 hPa East 3.2 km/h 8 km/h 99 % 2.79 mm
08:22 12.6 °C 12.3 °C 1012.1 hPa Calm   8 km/h 98 % 2.79 mm
08:27 12.6 °C 12.4 °C 1012.4 hPa ESE 3.2 km/h 8 km/h 99 % 2.54 mm
08:32 12.7 °C 12.5 °C 1012.1 hPa SE 1.6 km/h 6.4 km/h 99 % 2.79 mm
08:37 12.8 °C 12.6 °C 1012.1 hPa ESE 1.6 km/h 6.4 km/h 99 % 2.54 mm
08:42 12.8 °C 12.6 °C 1012.4 hPa Calm   8 km/h 99 % 2.03 mm
08:47 12.8 °C 12.6 °C 1012.1 hPa Calm   8 km/h 99 % 1.52 mm
08:52 12.8 °C 12.6 °C 1012.4 hPa South 6.4 km/h 8 km/h 99 % 1.27 mm
08:57 12.9 °C 12.7 °C 1012.8 hPa South 3.2 km/h 8 km/h 99 % 1.02 mm
09:02 12.9 °C 12.7 °C 1012.8 hPa SE 1.6 km/h 8 km/h 99 % 1.02 mm
09:07 13 °C 12.8 °C 1012.4 hPa SE 1.6 km/h 8 km/h 99 % 0.76 mm
09:12 13.1 °C 12.9 °C 1012.1 hPa ESE 1.6 km/h 8 km/h 99 % 0.76 mm
09:17 13.1 °C 12.9 °C 1011.7 hPa East 1.6 km/h 8 km/h 99 % 0.76 mm
09:22 13.1 °C 12.9 °C 1011.7 hPa SE 3.2 km/h 6.4 km/h 99 % 1.02 mm
09:27 13.2 °C 13 °C 1012.1 hPa ESE 6.4 km/h 9.7 km/h 99 % 1.02 mm
09:32 13.2 °C 13 °C 1012.1 hPa SE 9.7 km/h 11.3 km/h 99 % 0.76 mm
09:37 13.2 °C 13 °C 1012.1 hPa SE 3.2 km/h 14.5 km/h 99 % 1.02 mm
09:42 13.3 °C 13.1 °C 1012.1 hPa SE 4.8 km/h 14.5 km/h 99 % 1.02 mm
09:47 13.3 °C 13.1 °C 1012.1 hPa South 4.8 km/h 14.5 km/h 99 % 1.02 mm
09:52 13.4 °C 13.2 °C 1012.1 hPa Calm   12.9 km/h 99 % 1.02 mm
09:57 13.4 °C 13.2 °C 1012.1 hPa East 4.8 km/h 6.4 km/h 99 % 1.02 mm
10:02 13.4 °C 13.2 °C 1012.4 hPa SSW 3.2 km/h 6.4 km/h 99 % 1.27 mm
10:07 13.5 °C 13.3 °C 1012.4 hPa SE 4.8 km/h 6.4 km/h 99 % 1.02 mm
10:12 13.6 °C 13.4 °C 1012.1 hPa SE 3.2 km/h 6.4 km/h 99 % 1.02 mm
10:17 13.6 °C 13.4 °C 1012.4 hPa SSE 1.6 km/h 6.4 km/h 99 % 1.27 mm
10:22 13.7 °C 13.5 °C 1012.4 hPa SSE 6.4 km/h 6.4 km/h 99 % 1.02 mm
10:27 13.7 °C 13.5 °C 1012.8 hPa South 3.2 km/h 9.7 km/h 99 % 1.02 mm
10:32 13.7 °C 13.5 °C 1012.4 hPa SSE 1.6 km/h 9.7 km/h 99 % 1.02 mm
10:37 13.8 °C 13.6 °C 1012.1 hPa SSE 1.6 km/h 9.7 km/h 99 % 0.76 mm
10:42 13.8 °C 13.6 °C 1012.1 hPa South 1.6 km/h 6.4 km/h 99 % 1.02 mm
10:47 13.8 °C 13.6 °C 1011.4 hPa SSE 1.6 km/h 6.4 km/h 99 % 0.76 mm
10:52 13.9 °C 13.7 °C 1011.7 hPa South 8 km/h 8 km/h 99 % 0.76 mm
10:57 13.9 °C 13.7 °C 1012.4 hPa WSW 1.6 km/h 8 km/h 99 % 0.76 mm
11:02 14.1 °C 13.9 °C 1012.8 hPa Calm   8 km/h 99 % 0.51 mm
11:07 14.1 °C 13.9 °C 1012.4 hPa SSW 1.6 km/h 8 km/h 99 % 0.51 mm
11:12 14.2 °C 14 °C 1012.4 hPa SW 4.8 km/h 6.4 km/h 99 % 0.51 mm
11:17 14.4 °C 14.2 °C 1012.4 hPa WSW 3.2 km/h 8 km/h 99 % 0.25 mm
11:22 14.6 °C 14.4 °C 1012.4 hPa Calm   8 km/h 99 % 0.25 mm
11:27 14.6 °C 14.4 °C 1012.4 hPa Calm   8 km/h 99 % 0.25 mm
11:32 14.6 °C 14.4 °C 1012.1 hPa SSW 4.8 km/h 8 km/h 99 % 0.25 mm
11:37 14.4 °C 14.2 °C 1011.7 hPa SSW 4.8 km/h 8 km/h 99 % 0.25 mm
11:42 14.4 °C 14.2 °C 1011.7 hPa SW 8 km/h 9.7 km/h 99 % 0 mm
11:47 14.4 °C 14.2 °C 1011.4 hPa SSW 4.8 km/h 9.7 km/h 99 % 0 mm
11:52 14.5 °C 14.3 °C 1011.1 hPa SSE 3.2 km/h 9.7 km/h 99 % 0 mm
11:57 14.7 °C 14.5 °C 1010.7 hPa SSE 3.2 km/h 8 km/h 99 % 0 mm
12:02 14.8 °C 14.6 °C 1011.1 hPa SSW 3.2 km/h 8 km/h 99 % 0 mm
12:07 15 °C 14.8 °C 1010.7 hPa South 6.4 km/h 8 km/h 99 % 0 mm
12:12 15.1 °C 14.9 °C 1010.4 hPa South 3.2 km/h 8 km/h 99 % 0 mm
12:17 15.2 °C 15 °C 1010.4 hPa Calm   8 km/h 99 % 0 mm
12:22 15.4 °C 15.2 °C 1010.4 hPa Calm   8 km/h 99 % 0 mm
12:27 15.6 °C 15.4 °C 1010.4 hPa South 3.2 km/h 8 km/h 99 % 0 mm
12:32 15.5 °C 15.2 °C 1010 hPa SSW 3.2 km/h 9.7 km/h 98 % 0 mm
12:37 15.7 °C 15.4 °C 1010 hPa Calm   9.7 km/h 98 % 0 mm
12:42 15.7 °C 15.4 °C 1010 hPa SW 3.2 km/h 9.7 km/h 98 % 0 mm
12:47 15.7 °C 15.4 °C 1009.7 hPa SW 1.6 km/h 4.8 km/h 98 % 0 mm
12:52 15.8 °C 15.5 °C 1009.7 hPa WNW 3.2 km/h 4.8 km/h 98 % 0 mm
12:57 15.9 °C 15.6 °C 1009.7 hPa Calm   4.8 km/h 98 % 0 mm
13:02 15.8 °C 15.3 °C 1009.7 hPa WSW 3.2 km/h 6.4 km/h 97 % 0 mm
13:07 15.9 °C 15.4 °C 1009.4 hPa WSW 6.4 km/h 6.4 km/h 97 % 0 mm
13:12 15.9 °C 15.4 °C 1009.4 hPa SW 6.4 km/h 8 km/h 97 % 0 mm
13:17 16 °C 15.5 °C 1009.4 hPa Calm   8 km/h 97 % 0 mm
13:22 16.1 °C 15.6 °C 1009 hPa SW 3.2 km/h 8 km/h 97 % 0 mm
13:27 16.1 °C 15.6 °C 1009 hPa WSW 1.6 km/h 9.7 km/h 97 % 0 mm
13:32 16 °C 15.4 °C 1009 hPa Calm   9.7 km/h 96 % 0 mm
13:37 15.8 °C 15.2 °C 1008.7 hPa WSW 1.6 km/h 9.7 km/h 96 % 0 mm
13:42 15.7 °C 15.1 °C 1008.7 hPa SW 3.2 km/h 8 km/h 96 % 0 mm
13:47 15.8 °C 15.2 °C 1008.4 hPa SSW 6.4 km/h 8 km/h 96 % 0 mm
13:52 15.8 °C 15.2 °C 1008.4 hPa SW 3.2 km/h 12.9 km/h 96 % 0 mm
13:57 15.8 °C 15.2 °C 1008.4 hPa SW 4.8 km/h 12.9 km/h 96 % 0 mm
14:02 15.9 °C 15.4 °C 1008.4 hPa Calm   12.9 km/h 97 % 0 mm
14:07 16.1 °C 15.5 °C 1008 hPa South 1.6 km/h 11.3 km/h 96 % 0 mm
14:12 16.2 °C 15.6 °C 1008 hPa SSW 3.2 km/h 11.3 km/h 96 % 0 mm
14:17 16.3 °C 15.5 °C 1008 hPa WSW 4.8 km/h 9.7 km/h 95 % 0 mm
14:22 16.4 °C 15.6 °C 1007.7 hPa SSW 1.6 km/h 9.7 km/h 95 % 0 mm
14:27 16.6 °C 15.8 °C 1007.7 hPa South 1.6 km/h 8 km/h 95 % 0 mm
14:32 16.6 °C 15.6 °C 1007.7 hPa SSE 3.2 km/h 9.7 km/h 94 % 0 mm
14:37 16.7 °C 15.7 °C 1007.3 hPa SSW 1.6 km/h 9.7 km/h 94 % 0 mm
14:42 16.8 °C 15.7 °C 1007.7 hPa SW 4.8 km/h 9.7 km/h 93 % 0 mm
14:47 16.9 °C 15.8 °C 1007.7 hPa SSE 4.8 km/h 8 km/h 93 % 0 mm
14:52 16.9 °C 15.8 °C 1007.3 hPa South 6.4 km/h 8 km/h 93 % 0 mm
14:57 16.9 °C 15.6 °C 1007.3 hPa WSW 3.2 km/h 8 km/h 92 % 0 mm
15:02 16.9 °C 15.6 °C 1007.3 hPa SE 6.4 km/h 9.7 km/h 92 % 0 mm
15:07 16.9 °C 15.6 °C 1007.3 hPa SSW 3.2 km/h 9.7 km/h 92 % 0 mm
15:12 16.9 °C 15.6 °C 1007.3 hPa SSW 1.6 km/h 9.7 km/h 92 % 0 mm
15:17 17 °C 15.7 °C 1007.7 hPa South 4.8 km/h 9.7 km/h 92 % 0 mm
15:22 16.9 °C 15.6 °C 1007.7 hPa South 4.8 km/h 9.7 km/h 92 % 0 mm
15:28 16.8 °C 15.5 °C 1007.3 hPa SSW 3.2 km/h 9.7 km/h 92 % 0 mm
15:33 16.8 °C 15.5 °C 1007.3 hPa SSW 6.4 km/h 9.7 km/h 92 % 0 mm
15:38 16.8 °C 15.7 °C 1007.3 hPa SSW 4.8 km/h 9.7 km/h 93 % 0 mm
15:43 16.9 °C 15.8 °C 1007.3 hPa South 4.8 km/h 9.7 km/h 93 % 0 mm
15:48 16.8 °C 15.7 °C 1007.3 hPa SSE 6.4 km/h 9.7 km/h 93 % 0 mm
15:53 16.8 °C 15.7 °C 1007.3 hPa SSE 4.8 km/h 9.7 km/h 93 % 0 mm
15:58 16.8 °C 15.5 °C 1007.3 hPa SSE 9.7 km/h 9.7 km/h 92 % 0 mm
16:03 16.7 °C 15.6 °C 1007.3 hPa SSW 3.2 km/h 11.3 km/h 93 % 0 mm
16:08 16.7 °C 15.6 °C 1007.3 hPa SW 1.6 km/h 11.3 km/h 93 % 0 mm
16:13 16.8 °C 15.7 °C 1007.3 hPa SSW 6.4 km/h 11.3 km/h 93 % 0 mm
16:18 16.8 °C 15.7 °C 1007.3 hPa SW 1.6 km/h 9.7 km/h 93 % 0 mm
16:23 16.8 °C 15.7 °C 1007.3 hPa South 3.2 km/h 9.7 km/h 93 % 0 mm
16:28 16.8 °C 15.7 °C 1007.3 hPa SSW 1.6 km/h 9.7 km/h 93 % 0 mm
16:33 16.8 °C 15.7 °C 1007.3 hPa SW 3.2 km/h 9.7 km/h 93 % 0 mm
16:38 16.8 °C 15.7 °C 1007.3 hPa South 4.8 km/h 9.7 km/h 93 % 0 mm
16:43 16.8 °C 15.7 °C 1007.3 hPa South 3.2 km/h 6.4 km/h 93 % 0 mm
16:48 16.8 °C 15.7 °C 1007 hPa SSW 1.6 km/h 9.7 km/h 93 % 0 mm
16:53 16.8 °C 15.7 °C 1007 hPa Calm   9.7 km/h 93 % 0 mm
16:58 16.8 °C 15.7 °C 1007.3 hPa SSW 4.8 km/h 9.7 km/h 93 % 0 mm
17:03 16.8 °C 15.7 °C 1007.3 hPa SSW 4.8 km/h 11.3 km/h 93 % 0 mm
17:08 16.8 °C 15.7 °C 1007.3 hPa SSW 3.2 km/h 11.3 km/h 93 % 0 mm
17:13 16.9 °C 15.8 °C 1007.3 hPa South 4.8 km/h 11.3 km/h 93 % 0 mm
17:18 16.9 °C 15.8 °C 1007.3 hPa Calm   8 km/h 93 % 0 mm
17:23 16.9 °C 15.8 °C 1007.3 hPa Calm   6.4 km/h 93 % 0 mm
17:28 16.9 °C 15.8 °C 1007.3 hPa SSW 3.2 km/h 6.4 km/h 93 % 0 mm
17:33 16.8 °C 15.7 °C 1007.3 hPa Calm   9.7 km/h 93 % 0 mm
17:39 16.8 °C 15.7 °C 1007.3 hPa South 1.6 km/h 9.7 km/h 93 % 0 mm
17:44 16.8 °C 15.7 °C 1007.3 hPa Calm   9.7 km/h 93 % 0 mm
17:49 16.8 °C 15.7 °C 1007.3 hPa Calm   3.2 km/h 93 % 0 mm
17:54 16.8 °C 15.8 °C 1007.3 hPa Calm   3.2 km/h 94 % 0 mm
17:59 16.8 °C 15.8 °C 1007.3 hPa Calm   3.2 km/h 94 % 0 mm
18:04 16.8 °C 15.8 °C 1007.3 hPa Calm   3.2 km/h 94 % 0 mm
18:09 16.7 °C 15.7 °C 1007.7 hPa Calm   3.2 km/h 94 % 0 mm
18:14 16.7 °C 15.7 °C 1007.7 hPa Calm   3.2 km/h 94 % 0 mm
18:19 16.7 °C 15.7 °C 1007.7 hPa Calm   3.2 km/h 94 % 0 mm
18:24 16.7 °C 15.7 °C 1007.7 hPa SSW 1.6 km/h 4.8 km/h 94 % 0 mm
18:29 16.7 °C 15.7 °C 1007.7 hPa Calm   4.8 km/h 94 % 0 mm
18:34 16.7 °C 15.7 °C 1007.7 hPa South 4.8 km/h 4.8 km/h 94 % 0 mm
18:39 16.7 °C 15.7 °C 1007.7 hPa SSW 1.6 km/h 6.4 km/h 94 % 0 mm
18:44 16.7 °C 15.7 °C 1007.3 hPa SSW 3.2 km/h 6.4 km/h 94 % 0 mm
18:49 16.6 °C 15.6 °C 1007.3 hPa SSW 6.4 km/h 6.4 km/h 94 % 0 mm
18:54 16.6 °C 15.6 °C 1007.7 hPa ESE 3.2 km/h 8 km/h 94 % 0 mm
18:59 16.6 °C 15.8 °C 1007.7 hPa SSE 3.2 km/h 11.3 km/h 95 % 0 mm
19:04 16.7 °C 15.9 °C 1007.7 hPa SSW 3.2 km/h 11.3 km/h 95 % 0 mm
19:09 16.7 °C 15.9 °C 1007.7 hPa South 1.6 km/h 11.3 km/h 95 % 0 mm
19:14 16.7 °C 15.9 °C 1007.7 hPa Calm   8 km/h 95 % 0 mm
19:19 16.7 °C 15.9 °C 1007.7 hPa SW 3.2 km/h 6.4 km/h 95 % 0 mm
19:24 16.7 °C 15.9 °C 1007.7 hPa SW 1.6 km/h 6.4 km/h 95 % 0 mm
19:29 16.7 °C 15.9 °C 1007.7 hPa South 3.2 km/h 9.7 km/h 95 % 0 mm
19:34 16.7 °C 15.9 °C 1007.7 hPa SSW 1.6 km/h 9.7 km/h 95 % 0 mm
19:39 16.7 °C 15.9 °C 1007.7 hPa SSW 1.6 km/h 9.7 km/h 95 % 0 mm
19:44 16.7 °C 15.9 °C 1007.7 hPa SSW 1.6 km/h 6.4 km/h 95 % 0 mm
19:49 16.7 °C 15.9 °C 1008 hPa SW 1.6 km/h 4.8 km/h 95 % 0 mm
19:54 16.7 °C 15.9 °C 1007.7 hPa Calm   4.8 km/h 95 % 0 mm
19:59 16.6 °C 15.8 °C 1007.7 hPa SSW 1.6 km/h 4.8 km/h 95 % 0 mm
20:04 16.6 °C 15.8 °C 1007.7 hPa SSW 3.2 km/h 4.8 km/h 95 % 0 mm
20:09 16.6 °C 15.8 °C 1007.7 hPa South 3.2 km/h 4.8 km/h 95 % 0 mm
20:14 16.6 °C 15.8 °C 1007.7 hPa Calm   3.2 km/h 95 % 0 mm
20:19 16.6 °C 16 °C 1007.7 hPa South 1.6 km/h 3.2 km/h 96 % 0 mm
20:24 16.6 °C 16 °C 1007.7 hPa South 1.6 km/h 3.2 km/h 96 % 0 mm
20:29 16.6 °C 16 °C 1007.7 hPa SW 3.2 km/h 3.2 km/h 96 % 0 mm
20:34 16.6 °C 16 °C 1008 hPa South 3.2 km/h 4.8 km/h 96 % 0 mm
20:39 16.6 °C 16 °C 1007.7 hPa SSW 1.6 km/h 4.8 km/h 96 % 0 mm
20:44 16.6 °C 16 °C 1007.7 hPa SE 1.6 km/h 4.8 km/h 96 % 0 mm
20:49 16.7 °C 16.1 °C 1007.7 hPa SSE 1.6 km/h 3.2 km/h 96 % 0 mm
20:54 16.7 °C 16.1 °C 1007.7 hPa South 1.6 km/h 3.2 km/h 96 % 0 mm
20:59 16.7 °C 16.1 °C 1008 hPa SSE 1.6 km/h 6.4 km/h 96 % 0 mm
21:04 16.7 °C 16.1 °C 1007.7 hPa SSE 4.8 km/h 9.7 km/h 96 % 0 mm
21:09 16.7 °C 16.1 °C 1007.7 hPa SSE 3.2 km/h 9.7 km/h 96 % 0 mm
21:14 16.8 °C 16.2 °C 1007.7 hPa Calm   9.7 km/h 96 % 0 mm
21:19 16.7 °C 16.1 °C 1007.7 hPa SSE 3.2 km/h 8 km/h 96 % 0 mm
21:24 16.7 °C 16.1 °C 1007.7 hPa SSE 4.8 km/h 8 km/h 96 % 0 mm
21:29 16.7 °C 16.1 °C 1007.3 hPa South 3.2 km/h 6.4 km/h 96 % 0 mm
21:34 16.7 °C 16.2 °C 1007.3 hPa SE 3.2 km/h 6.4 km/h 97 % 0 mm
21:39 16.7 °C 16.2 °C 1007.7 hPa SSE 3.2 km/h 6.4 km/h 97 % 0 mm
21:40 16.7 °C 16.2 °C 1007.7 hPa SSE 3.2 km/h 6.4 km/h 97 % 0 mm
21:45 16.7 °C 16.2 °C 1007.7 hPa South 3.2 km/h 4.8 km/h 97 % 0 mm
21:50 16.7 °C 16.2 °C 1007.7 hPa SSE 3.2 km/h 6.4 km/h 97 % 0 mm
21:55 16.7 °C 16.2 °C 1007.7 hPa SSE 1.6 km/h 9.7 km/h 97 % 0 mm
22:00 16.7 °C 16.2 °C 1007.7 hPa SSW 3.2 km/h 9.7 km/h 97 % 0 mm
22:05 16.6 °C 16.1 °C 1007.7 hPa SSE 1.6 km/h 9.7 km/h 97 % 0 mm
22:10 16.4 °C 15.9 °C 1007.7 hPa SSW 1.6 km/h 4.8 km/h 97 % 0 mm
22:15 16.3 °C 15.8 °C 1007.7 hPa Calm   4.8 km/h 97 % 0 mm
22:20 16.1 °C 15.6 °C 1007.7 hPa Calm   3.2 km/h 97 % 0 mm
22:25 16 °C 15.5 °C 1007.7 hPa Calm   1.6 km/h 97 % 0 mm
22:30 15.9 °C 15.4 °C 1007.7 hPa Calm   1.6 km/h 97 % 0 mm
22:35 15.7 °C 15.2 °C 1008 hPa Calm   1.6 km/h 97 % 0 mm
22:40 15.5 °C 15 °C 1007.7 hPa Calm     97 % 0 mm
22:45 15.3 °C 14.8 °C 1008 hPa Calm     97 % 0 mm
22:50 15.3 °C 14.8 °C 1008 hPa Calm     97 % 0 mm
22:55 15.3 °C 15 °C 1008 hPa Calm     98 % 0 mm
23:00 15.4 °C 15.1 °C 1007.7 hPa Calm     98 % 0 mm
23:05 15.4 °C 14.9 °C 1007.7 hPa Calm     97 % 0 mm
23:10 15.3 °C 15 °C 1007.7 hPa Calm     98 % 0 mm
23:15 15.1 °C 14.6 °C 1007.3 hPa Calm     97 % 0 mm
23:20 14.9 °C 14.4 °C 1007.3 hPa Calm     97 % 0 mm
23:25 14.8 °C 14.5 °C 1007.3 hPa Calm     98 % 0 mm
23:30 14.8 °C 14.5 °C 1007.3 hPa Calm     98 % 0 mm
23:35 14.6 °C 14.1 °C 1007.3 hPa Calm     97 % 0 mm
23:40 14.4 °C 13.9 °C 1007.3 hPa Calm     97 % 0 mm
23:45 14.2 °C 13.7 °C 1007.3 hPa Calm     97 % 0 mm
23:50 14 °C 13.5 °C 1007.3 hPa Calm     97 % 0 mm
23:55 13.8 °C 13.3 °C 1007.3 hPa Calm     97 % 0 mm
Spring, Texas: Villages of Bridgestone
Compliments of Weather Underground - 2.75 mb

Script developed by  Jim McMurry - jmcmurry@mwt.net Adapted for the template by  Wim van der Kuil - Leuven-Template.eu

You find our weather info also at:

UK Metoffice

WeatherCloud

Weather Underground

Mid-South Weather Network

AWEKAS

Citizen Weather Observer Program (CWOP)

HAMweather, WeatherForYou, PWS Weather

Equipment we use:

Weather-station
Davis Vantage Vue

Weather-program
Meteohub

Weather-server
Debian 7.9 x86 (Guest)

Provider
DreamHost

Davis Vantage Vue

Meteohub

Debian 7.9 x86 (Guest)

DreamHost